CW8822 Caguas PR US current weather conditions

sailwx.info

Wind from 078 at 0 knots gusting 7

Air temperature 30.0° C
Dewpoint 22.7° C

Last reported at 2017-Jun-25 20:07 UTC.
Time now 2017-Jun-25 20:54 UTC

Location: N 18°12' W 066°01'.
View on Google Maps.

See reports from other nearby stations

  
Tides and Currents Weather Stations Pressure Air Temp Water Temp Dewpoint Dewpoint Depression Visibility Wind Speed Wind Dir Waves Ship Positions
date/time (UTC)wind fromknots sea level pressurealtimeterstation pressurevisibilityair tempwater tempwave heightnotes
2017-Jun-25 20:07 078 0 gusting 7 30.0
2017-Jun-25 19:51 098 30.0
2017-Jun-25 19:37 046 0 gusting 9 30.0
2017-Jun-25 19:21 059 30.6
2017-Jun-25 19:06 094 30.6
2017-Jun-25 18:50 165 30.0
2017-Jun-25 18:36 058 1 gusting 7 30.0
2017-Jun-25 18:21 059 30.0
2017-Jun-25 18:05 035 0 gusting 6 29.4
2017-Jun-25 17:51 082 30.0
2017-Jun-25 17:36 090 29.4
2017-Jun-25 17:20 167 0 gusting 15 30.0
2017-Jun-25 17:06 182 30.0
2017-Jun-25 16:51 069 0 gusting 15 30.0
2017-Jun-25 16:35 122 2 gusting 7 30.0
2017-Jun-25 16:20 103 30.0
2017-Jun-25 16:06 182 4 gusting 13 29.4
2017-Jun-25 15:50 067 1 gusting 13 28.9
2017-Jun-25 15:35 091 0 gusting 10 29.4
2017-Jun-25 15:21 092 1 gusting 6 29.4
2017-Jun-25 15:04 070 2 gusting 9 29.4
2017-Jun-25 14:50 078 2 gusting 8 28.9
2017-Jun-25 14:34 041 0 gusting 9 28.3
2017-Jun-25 14:20 096 0 gusting 8 28.3
2017-Jun-25 14:05 171 28.3
2017-Jun-25 13:49 100 0 gusting 5 27.8
2017-Jun-25 13:34 056 0 gusting 6 27.8
2017-Jun-25 13:20 065 27.2
2017-Jun-25 13:03 075 27.2
2017-Jun-25 12:49 089 26.7
2017-Jun-25 12:34 045 26.7
2017-Jun-25 12:18 074 26.1
2017-Jun-25 12:04 110 25.6
2017-Jun-25 11:49 064 25.6
2017-Jun-25 11:34 136 24.4
2017-Jun-25 11:19 136 23.9
2017-Jun-25 11:03 136 23.9
2017-Jun-25 10:48 111 0 gusting 3 23.9
2017-Jun-25 10:32 110 23.3
2017-Jun-25 10:18 110 23.3
2017-Jun-25 10:04 116 23.3
2017-Jun-25 09:47 116 23.3
2017-Jun-25 09:33 153 23.3
2017-Jun-25 09:20 150 23.3
2017-Jun-25 09:03 150 23.3
2017-Jun-25 08:47 150 23.3
2017-Jun-25 08:33 150 23.3
2017-Jun-25 08:18 150 23.9
2017-Jun-25 08:02 150 23.9
2017-Jun-25 07:47 150 23.3
2017-Jun-25 07:32 150 23.9
2017-Jun-25 07:18 150 23.9
2017-Jun-25 07:02 154 23.9
2017-Jun-25 06:47 155 23.9
2017-Jun-25 06:32 155 23.9
2017-Jun-25 06:16 111 23.9
2017-Jun-25 06:02 092 23.9
2017-Jun-25 05:47 084 23.3
2017-Jun-25 05:32 084 23.9
2017-Jun-25 05:16 083 23.9
2017-Jun-25 05:01 083 23.9
2017-Jun-25 04:46 083 23.9
2017-Jun-25 04:32 083 23.9
2017-Jun-25 04:16 083 23.9
2017-Jun-25 04:01 080 23.9
2017-Jun-25 03:47 080 23.9
2017-Jun-25 03:30 080 23.9
2017-Jun-25 03:16 080 23.9
2017-Jun-25 03:01 080 23.9
2017-Jun-25 02:45 080 23.9
2017-Jun-25 02:30 080 23.9
2017-Jun-25 02:16 067 24.4
2017-Jun-25 02:01 067 24.4
2017-Jun-25 01:45 067 24.4
2017-Jun-25 01:31 067 24.4
2017-Jun-25 01:15 067 24.4
2017-Jun-25 01:00 067 24.4
2017-Jun-25 00:45 085 24.4
2017-Jun-25 00:31 084 23.9
2017-Jun-25 00:15 078 23.9
2017-Jun-25 00:01 064 23.9
2017-Jun-24 23:44 131 2 gusting 7 23.9
2017-Jun-24 23:29 139 0 gusting 9 23.9
2017-Jun-24 23:15 155 1 gusting 8 24.4
2017-Jun-24 23:00 165 1 gusting 7 24.4
2017-Jun-24 22:44 062 25.6
2017-Jun-24 22:29 070 26.7
2017-Jun-24 22:14 151 27.2
2017-Jun-24 22:00 065 28.3
2017-Jun-24 21:44 120 28.3
2017-Jun-24 21:29 165 28.3
2017-Jun-24 21:14 084 28.3
2017-Jun-24 20:58 055 28.9
2017-Jun-24 20:44 111 28.3
2017-Jun-24 20:29 151 1 gusting 6 28.3
2017-Jun-24 20:15 076 28.3
2017-Jun-24 19:58 088 28.3
2017-Jun-24 19:44 056 0 gusting 6 28.9
2017-Jun-24 19:29 130 0 gusting 5 28.9
2017-Jun-24 19:13 144 0 gusting 5 28.3
2017-Jun-24 18:59 087 0 gusting 6 27.8
2017-Jun-24 18:43 053 3 gusting 6 27.2
2017-Jun-24 18:28 073 1 gusting 6 27.8
2017-Jun-24 18:14 125 0 gusting 5 26.7
2017-Jun-24 17:57 147 1 gusting 6 28.3
2017-Jun-24 17:43 126 0 gusting 6 27.8
2017-Jun-24 17:27 099 1 gusting 11 28.3
2017-Jun-24 17:13 069 28.9
2017-Jun-24 16:58 118 0 gusting 7 27.8
2017-Jun-24 16:43 111 0 gusting 12 27.8
2017-Jun-24 16:27 163 1 gusting 10 28.3
2017-Jun-24 16:13 113 0 gusting 8 27.8
2017-Jun-24 15:58 174 1 gusting 6 27.8
2017-Jun-24 15:42 128 0 gusting 4 27.2
2017-Jun-24 15:27 135 26.7
2017-Jun-24 15:13 101 25.6
2017-Jun-24 14:57 095 25.6
2017-Jun-24 14:44 067 25.6
2017-Jun-24 14:28 094 0 gusting 6 26.7
2017-Jun-24 14:12 161 26.1
2017-Jun-24 13:57 098 27.8
2017-Jun-24 13:43 130 0 gusting 6 27.8
2017-Jun-24 13:26 056 0 gusting 6 27.8
2017-Jun-24 13:12 059 1 gusting 6 27.2
2017-Jun-24 12:57 063 26.7
2017-Jun-24 12:42 105 25.6
2017-Jun-24 12:26 053 26.1
2017-Jun-24 12:11 079 25.6
2017-Jun-24 11:57 079 25.6
2017-Jun-24 11:41 028 25.0
2017-Jun-24 11:27 154 25.0
2017-Jun-24 11:11 154 24.4
2017-Jun-24 10:55 154 23.9
2017-Jun-24 10:41 153 23.3
2017-Jun-24 10:25 153 22.8
2017-Jun-24 10:10 153 22.8
2017-Jun-24 09:56 163 22.2
2017-Jun-24 09:40 163 22.2
2017-Jun-24 09:25 163 22.8
2017-Jun-24 09:11 163 22.2
2017-Jun-24 08:56 163 22.2
2017-Jun-24 08:40 163 22.2
2017-Jun-24 08:25 163 22.2
2017-Jun-24 08:11 163 22.8
2017-Jun-24 07:55 163 22.2
2017-Jun-24 07:40 163 22.8
2017-Jun-24 07:24 163 22.2
2017-Jun-24 07:10 163 22.2
2017-Jun-24 06:54 163 22.8
2017-Jun-24 06:40 163 22.8
2017-Jun-24 06:25 163 22.8
2017-Jun-24 06:09 163 22.8
2017-Jun-24 05:54 163 22.8
2017-Jun-24 05:40 163 22.8
2017-Jun-24 05:25 163 22.8
2017-Jun-24 05:09 163 22.8
2017-Jun-24 04:54 163 22.8
2017-Jun-24 04:38 163 23.3
2017-Jun-24 04:24 163 23.3
2017-Jun-24 04:09 163 23.3
2017-Jun-24 03:53 163 23.3
2017-Jun-24 03:39 163 23.3
2017-Jun-24 03:24 163 22.8
2017-Jun-24 03:08 163 22.8
2017-Jun-24 02:53 163 22.8
2017-Jun-24 02:39 163 22.8
2017-Jun-24 02:24 163 22.8
2017-Jun-24 02:07 165 22.8
2017-Jun-24 01:53 165 22.8
2017-Jun-24 01:38 165 22.8
2017-Jun-24 01:24 165 22.8
2017-Jun-24 01:07 165 22.8
2017-Jun-24 00:53 165 22.8
2017-Jun-24 00:37 165 22.8
2017-Jun-24 00:23 165 22.8
2017-Jun-24 00:07 170 2 gusting 7 23.3
2017-Jun-23 23:53 125 23.9
2017-Jun-23 23:38 119 23.9
2017-Jun-23 23:22 124 24.4
2017-Jun-23 23:07 124 24.4
2017-Jun-23 22:53 087 24.4
2017-Jun-23 22:37 055 25.0
2017-Jun-23 22:22 024 25.6
2017-Jun-23 22:08 019 0 gusting 6 26.1
2017-Jun-23 21:52 347 0 gusting 6 26.1
2017-Jun-23 21:37 011 26.1
2017-Jun-23 21:22 338 26.1
2017-Jun-23 21:06 013 26.7
2017-Jun-23 20:51 013 26.1
2017-Jun-23 20:37 005 0 gusting 6 26.1
2017-Jun-23 20:22 059 26.1
2017-Jun-23 20:07 073 1 gusting 8 26.1